Reflectivity
-20 -20 -20 -20 -20 -20 -20 -20 -20 -20 -20 -20 -20 -20 -20 -20 -20 -20 -20 -20 -4 10 -9 -20 -20 -20 14 -20 -20 -20 -20 -20 -20 -20 -20 -20 -20 -5 -3 -16 -20 20 -2 -17 -20 0 2 -4 -13
-20 -20 -20 -20 -20 -20 -20 -20 -20 -20 -20 -20 -20 -20 -20 -20 -20 -20 -20 -20 -18 14 -1 -20 7 -20 -1 -20 -20 -20 -20 -20 -20 -20 -20 -20 -20 -20 -20 -20 -20 15 -20 -20 -20 -20 -3 2 4
-20 -20 -20 -20 -20 -20 -20 -20 -20 -20 -20 -20 -20 -20 -20 -20 -20 -20 -20 -20 -16 -6 20 0 14 -10 -20 -19 -20 -20 29 -20 -20 -20 -20 -20 -20 -20 -20 -20 -20 18 -20 -20 -20 -20 -20 -3 8
-20 -20 -20 -20 -20 -20 -20 -20 -20 -20 -20 -20 -20 -20 -20 -20 -20 -20 -20 -20 8 -19 23 16 6 -20 -20 -20 -20 -19 -20 -19 -20 -20 -20 -20 -20 -20 -20 -20 -20 -19 -20 -20 -20 -20 -20 -2 8
-20 -20 -20 -20 -20 -20 -20 -20 -20 -20 -20 -20 -20 -20 -20 -20 -20 -20 1 -20 -20 -7 1 -20 -20 -20 -20 -20 -20 -20 -18 -20 -20 -20 -20 -20 -20 -20 -20 -20 -20 -20 -20 -20 -20 -20 -20 -20 -9
-20 -20 -20 -20 -20 -20 -20 -20 -20 -20 -20 -20 -20 -20 -20 -20 -20 -20 -15 -20 -20 -17 -17 -9 -0 4 6 -20 -20 -20 -20 -20 -9 -20 -20 -20 -20 -20 -20 -20 -20 -20 -20 -20 -20 -20 -20 -20 -20
-20 -20 -20 -20 -20 -20 -20 -20 -20 -20 -20 -20 -20 -20 -20 -20 -20 -20 -20 -20 -20 -20 -20 3 -18 -14 12 10 5 -20 -1 -9 -20 -16 -20 -20 -20 -20 -12 -20 -20 -20 -20 -20 -20 -20 -20 -20 -20
-20 -20 -20 -20 -20 -20 -20 -20 -20 -20 -20 -20 -20 -20 -20 -20 -20 -20 -20 -20 -20 -20 -20 -20 -20 -20 -20 -10 14 2 -20 -20 -20 -20 -20 -20 -20 -20 -20 -20 -20 -20 -20 -20 -20 -20 -20 -20 -20
-20 -20 -20 -20 -20 -20 -20 -20 -20 -20 -20 -20 -20 -20 -20 -20 -20 -20 -20 -20 -20 -20 -20 -20 -20 -20 -20 -20 -10 7 -12 -20 -20 -20 7 9 -20 -10 -20 -20 -20 -20 -20 -20 -20 -18 -18 -20 -20
-20 -20 -20 -20 -20 -20 -20 -20 -20 -20 -20 -20 -20 -20 -20 -20 -20 -20 -20 -20 -20 -20 -20 -20 -20 -20 -20 -20 -20 -20 -20 -2 -20 -20 -20 2 -20 -20 -3 -20 -20 -20 -20 1 -12 -20 -20 -20 -20
-20 -20 -20 -20 -20 -20 -20 -20 -20 -20 -20 -20 -20 -20 -20 -20 -20 -20 -20 -20 -20 -20 -20 -20 -20 -20 -20 -20 -20 -20 -20 -20 -20 -2 3 -20 -7 9 -20 -20 -20 -20 -20 -20 -20 -2 -2 15 -20
-20 -20 -20 -20 -20 -20 -20 -20 -20 -20 -20 -20 -20 -20 -20 -20 -20 -20 -20 -20 -20 -20 -20 -20 -20 -20 -20 -20 -20 -20 -20 -20 -20 -20 -20 -19 -20 -6 2 -10 -9 8 -20 -20 -20 -6 -5 -5 -20
-20 -20 -20 -20 -20 -20 -20 -20 -20 -20 -20 -20 -20 -20 -20 -20 -20 -20 -20 -20 -20 -20 -20 -20 -20 -20 -20 -20 -20 -20 -20 -20 -20 -20 -20 -20 -20 -20 -20 -14 -4 -1 -16 -20 -20 -19 4 -19 8
-20 -20 -20 -20 -20 -20 -20 -20 -20 -20 -20 -20 -20 -20 -20 -20 -20 -20 -20 -20 -20 -20 -20 -20 -20 -20 -20 -20 -20 -20 -20 -20 -20 -20 -20 -20 -20 -20 -20 -20 -20 -20 -1 -20 -20 1 -20 -17 -3
-20 -20 -20 -20 -20 -20 -20 -20 -20 -20 -20 -20 -20 -20 -20 -20 -20 -20 -20 -20 -20 -20 -20 -20 -20 -20 -20 -20 -20 -20 -20 -20 -20 -20 -20 -20 -20 -20 -20 -20 -20 -15 -20 -15 -0 9 3 17 -20
-20 -20 -20 -20 -20 -20 -20 -20 -20 -20 -20 -20 -20 -20 -20 -20 -20 -20 -20 -20 -20 -20 -20 -20 -20 -20 -20 -20 -20 -20 -20 -20 -20 -20 -20 -20 -20 -20 -20 -20 -20 -20 -19 -0 10 -5 -19 -6 19
-20 -20 -20 -20 -20 -20 -20 -20 -20 -20 -20 -20 -20 -20 -20 -20 -20 -20 -20 -20 -20 -20 -20 -20 -20 -20 -20 -20 -20 -20 -20 -20 -20 -20 -20 -20 -20 -20 -20 -20 -20 -20 -20 1 10 14 6 -9 18
-20 -20 -20 -20 -20 -20 -20 -20 -20 -20 -20 -20 -20 -20 -20 -20 -20 -20 -20 -20 -20 -20 -20 -20 -20 -20 -20 -20 -20 -20 -20 -20 -20 -20 -20 -20 -20 -20 -20 -20 -20 -20 -20 -6 5 11 -3 -4 19
-20 -20 -20 -20 -20 -20 -20 -20 -20 -20 -20 -20 -20 -20 -20 -20 -20 -20 -20 -20 -20 -20 -20 -20 -20 -20 -20 -20 -20 -20 -20 -20 -20 -20 -20 -20 -20 -20 -20 -20 -20 -20 -20 -20 -20 -20 -14 -19 22
-20 -20 -20 -20 -20 -20 -20 -20 -20 -20 -20 -20 -20 -20 -20 -20 -20 -20 -20 -20 -20 -20 -20 -20 -20 -20 -20 -20 -20 6 -20 -20 -20 -20 -20 -20 -20 -20 -20 -20 -20 -20 -20 -20 -20 -20 -4 -2 23
-20 -20 -20 -20 -20 -20 -20 -20 -20 -20 -20 -20 -20 -20 -20 -20 -20 -20 -20 -20 -20 -20 -20 -20 -20 -20 -20 -20 -20 -20 -20 -20 -20 -20 -20 -20 -20 -20 -20 -20 -20 -20 -20 -20 -20 -20 -20 -20 12
-20 -20 -20 -20 -20 -20 -20 -20 -20 -20 -20 -20 -20 -20 -20 -20 -20 -20 -20 -20 -20 -20 -20 -20 -20 -20 -20 -20 -20 -20 -2 -20 -13 -15 -20 -20 -20 -20 -20 -20 -20 -20 -20 -20 -20 -7 2 2 -19
-20 -20 -20 -20 -20 -20 -20 -20 -20 -20 -20 -20 -20 -20 -20 -20 -20 -20 -20 -20 -20 -20 -20 -20 -20 -20 -20 -20 -20 -20 -19 -20 -20 -11 -20 -20 -20 -20 -20 -20 -20 -20 -20 -20 20 -17 -19 16 7
-20 -20 -20 -20 -20 -20 -20 -20 -20 -20 -20 -20 -20 -20 -20 -20 -20 -20 -20 -20 -20 -20 -20 -20 -20 -20 -20 -20 -17 -20 -20 -20 -20 -13 -18 -20 -20 -20 -20 -20 -20 -20 -20 -20 8 23 -17 -4 6
-20 -20 -20 -20 -20 -20 -20 -20 -20 -20 -20 -20 -20 -20 -20 -20 -20 -20 -20 -20 -20 -20 -20 -20 -20 -20 -20 -20 -20 -20 -5 -20 -14 -18 -1 -13 -20 -20 -20 -20 -20 -20 -20 -20 -20 -1 -6 -15 -16
-20 -20 -20 -20 -20 -20 -20 -20 -20 -20 -20 -20 -20 -20 -20 -20 -20 -20 -20 -20 -20 -20 -20 -20 -20 -20 -20 -20 -20 -20 -20 -18 -14 -3 -0 -6 5 7 -2 -17 -20 -20 -20 -18 -14 -20 11 6 13
-20 -20 -20 -20 -20 -20 -20 -20 -20 -20 -20 -20 -20 -20 -20 -20 -20 -20 -20 -20 -20 -20 -20 -20 -20 -20 -20 -20 -20 -20 -20 -20 -20 -20 1 3 8 5 5 -20 -20 -20 -20 -20 -20 -20 -5 -5 14
-20 -20 -20 -20 -20 -20 -20 -20 -20 -20 -20 -20 -20 -20 -20 -20 -20 -20 -20 -20 -20 -20 -20 -20 -20 -20 -20 -20 -20 -20 -20 -20 -20 -20 -20 -11 -6 -9 -20 -20 -20 -20 -20 -20 -20 -0 3 -18 -2
-20 -20 -20 -20 -20 -20 -20 -20 -20 -20 -20 -20 -20 -20 -20 -20 -20 -20 -20 -20 -20 -20 -20 -20 -20 -20 -20 -20 -20 -20 -20 -20 -20 -20 -20 -20 -19 -10 -20 -20 -20 -20 -20 -20 -20 -20 -20 -15 -20
-20 -20 -20 -20 -20 -20 -20 -20 -20 -20 -20 -20 -20 -20 -20 -20 -20 -20 -20 -20 -20 -20 -20 -20 -20 -20 -20 -20 -20 -20 -20 -20 -20 -20 -20 -20 -20 -20 -20 -20 -20 -20 -20 -20 -20 -20 -20 -20 -20
Wind_Speed
2 2 1 4 4 3 1 2 0 3 0 1 1 2 6 5 2 3 2 4 10 7 2 9 9 8 8 9 10 7 6 7 7 7 7 7 6 5 5 3 4 2 9 8 7 7 6 7 9
1 1 4 3 5 3 2 1 3 2 4 4 4 2 5 4 2 2 1 11 12 9 3 6 9 8 8 8 8 8 7 7 8 7 6 6 5 4 2 2 3 6 8 8 8 6 6 6 7
1 3 3 5 3 4 4 3 5 2 3 2 4 4 2 3 1 1 4 10 11 4 5 5 8 7 6 6 7 7 8 7 7 6 7 5 5 4 3 1 3 7 7 8 7 6 6 6 6
2 3 4 4 4 2 1 4 3 6 3 3 3 6 2 1 1 3 8 9 9 10 4 7 6 6 5 5 6 6 6 7 6 5 6 5 5 4 4 3 3 7 7 7 7 7 7 6 6
3 3 4 4 2 2 1 1 1 2 3 2 1 4 3 1 3 3 6 8 8 11 10 8 5 3 4 3 3 5 6 6 6 6 7 7 6 6 6 5 5 6 7 8 7 8 8 7 6
4 3 3 4 3 1 1 1 1 2 2 2 4 4 2 2 2 5 5 7 7 8 9 9 10 9 4 2 4 4 4 6 6 6 7 7 7 7 8 7 7 8 9 9 9 9 9 9 9
6 4 3 5 5 2 2 2 3 3 2 3 2 4 0 1 2 3 5 6 7 8 8 7 7 8 9 7 6 4 5 6 6 7 7 7 7 7 8 8 9 10 11 11 10 10 10 11 10
5 5 4 1 5 3 1 2 1 2 2 0 1 4 4 1 1 3 4 6 6 6 7 8 8 7 6 6 8 6 5 6 6 6 7 7 6 7 8 7 9 11 12 12 11 11 11 10 9
3 5 3 5 5 4 1 2 2 1 2 3 3 2 1 0 1 3 4 6 6 6 8 8 8 8 8 7 5 7 6 5 5 5 7 7 7 8 8 7 7 9 11 12 13 13 12 10 10
5 4 4 1 1 3 2 2 1 1 2 3 3 3 2 3 4 4 4 5 5 7 9 8 8 8 8 6 7 7 6 5 6 6 8 7 8 8 7 7 7 9 10 11 13 14 12 9 8
3 4 4 2 1 1 2 2 2 2 1 2 3 3 1 2 5 4 3 2 4 4 5 9 8 7 7 6 5 3 3 4 4 6 5 6 6 6 6 5 5 7 7 7 9 10 10 11 9
7 5 3 2 4 2 2 1 2 2 1 3 1 1 1 3 3 3 4 5 6 5 7 8 8 7 7 5 4 4 4 4 4 5 7 5 3 5 6 6 7 7 6 9 9 7 10 12 13
6 3 5 3 6 5 1 2 1 3 1 3 5 4 5 2 1 1 2 3 4 5 6 7 7 7 7 7 5 5 5 4 6 6 7 5 6 6 6 5 6 7 7 8 9 9 9 11 13
2 5 4 6 4 4 3 0 3 1 0 2 5 4 2 2 1 2 1 2 3 5 7 7 8 6 7 7 8 7 6 7 5 6 7 8 7 7 8 7 6 7 8 8 9 10 9 9 9
3 5 3 7 5 3 2 2 4 1 1 3 1 0 1 2 1 1 1 2 4 5 7 8 9 9 9 9 8 7 7 8 8 7 9 10 9 9 10 8 7 6 6 10 8 8 9 9 8
6 5 3 4 6 3 2 6 2 1 5 5 6 5 3 4 4 3 3 4 5 6 8 9 8 10 10 9 8 7 7 7 8 8 8 11 10 10 9 8 9 8 7 6 7 7 8 8 9
7 3 1 1 3 3 3 6 3 3 1 7 8 7 6 5 7 7 4 4 5 5 8 9 8 9 9 9 8 8 9 7 8 8 8 11 11 11 9 8 8 10 8 8 7 6 7 8 9
5 5 1 0 4 3 3 10 11 8 8 13 10 8 8 8 10 5 4 4 5 5 6 7 7 8 9 7 6 6 6 6 6 8 9 12 9 11 9 8 10 9 8 8 9 9 7 7 8
6 5 3 2 2 4 4 8 17 9 8 12 9 8 8 9 3 4 4 4 4 4 8 8 9 9 7 6 7 5 7 8 8 8 12 12 11 11 10 8 9 9 9 10 11 10 10 7 7
5 4 2 3 3 3 5 18 17 12 9 5 5 7 6 4 4 5 4 4 5 7 8 10 9 10 7 6 7 4 6 7 9 9 10 11 11 11 10 9 8 10 8 10 11 11 6 5 6
4 5 1 0 5 1 7 9 7 1 2 3 5 4 5 7 6 5 4 5 5 7 8 9 10 11 9 10 8 7 6 5 6 7 8 8 9 9 9 9 9 9 8 8 9 9 11 7 5
3 1 2 2 4 3 4 8 7 4 6 6 6 7 8 8 6 6 6 6 5 6 6 8 9 8 8 9 8 10 6 7 7 8 9 10 10 9 8 8 7 8 7 8 8 8 10 10 9
3 2 3 2 3 3 1 1 10 4 5 5 6 9 9 9 8 9 7 6 5 4 4 5 7 8 7 7 8 7 7 6 7 6 11 10 9 8 8 6 6 7 7 7 8 8 7 8 9
4 4 5 4 2 2 1 2 9 4 5 2 2 5 8 9 8 8 7 6 6 4 3 4 7 8 8 7 8 9 9 8 7 7 8 7 7 7 7 6 5 6 6 7 6 7 9 8 7
3 4 4 6 5 5 0 2 15 5 6 5 4 5 6 7 7 8 8 6 6 5 4 4 4 7 8 8 8 8 9 9 9 9 6 8 7 6 9 9 6 5 6 6 6 7 9 8 7
2 4 6 5 2 5 1 9 10 5 4 5 6 7 6 6 6 8 8 7 7 6 5 4 4 6 7 7 8 8 8 6 6 7 6 6 6 6 7 9 8 6 6 6 6 5 5 6 6
2 1 3 7 1 3 4 9 13 6 10 9 10 6 9 8 7 9 8 8 8 7 8 7 4 5 5 7 6 7 7 8 8 9 7 6 8 7 7 6 7 7 6 7 5 3 5 5 6
2 5 3 2 1 5 5 7 8 6 4 5 8 11 8 6 7 8 8 8 7 8 7 7 5 6 6 6 4 5 6 7 7 7 7 8 8 9 8 5 3 5 5 4 4 4 4 3 3
4 1 2 2 3 3 5 8 8 7 5 5 5 6 6 7 7 7 7 7 8 6 7 7 7 6 6 5 5 6 4 5 6 6 8 9 8 8 9 8 5 6 6 5 2 3 5 6 5
3 5 5 4 4 3 1 13 3 7 6 5 7 6 5 6 7 7 7 7 6 8 7 8 7 7 7 6 5 6 5 5 6 6 7 8 8 6 6 6 6 6 6 6 6 4 4 5 5
Wind_Direction
39 34 53 47 88 64 198 208 277 140 148 345 24 126 101 45 50 105 337 337 333 315 194 170 166 160 156 154 156 153 147 141 136 130 133 138 139 134 139 168 207 186 145 116 105 86 113 105 113
58 119 51 94 96 117 222 222 166 151 142 137 69 43 51 78 27 60 17 340 320 304 225 158 159 161 162 163 166 170 167 164 159 148 149 154 159 159 148 41 202 166 139 116 123 113 115 126 131
107 44 87 93 113 166 165 186 148 118 151 17 95 41 72 94 73 9 330 321 311 296 203 163 158 153 156 168 174 187 185 184 176 171 167 171 173 186 193 86 72 153 118 126 137 143 147 154 161
98 40 56 90 149 193 120 145 114 128 102 60 110 69 74 325 270 331 324 342 12 10 33 132 148 149 150 176 190 203 195 192 184 184 190 185 197 204 206 185 113 141 141 152 158 165 169 175 176
47 60 72 82 116 118 171 82 332 106 96 58 336 139 84 21 323 344 4 15 21 27 28 54 57 119 162 179 192 208 210 203 201 200 202 202 207 214 218 190 184 176 174 176 178 181 183 187 196
64 91 84 155 156 115 69 23 94 74 62 79 89 105 127 323 353 360 13 22 27 32 27 30 22 18 5 263 212 225 233 235 230 220 225 220 223 224 223 210 201 204 205 200 199 196 196 198 199
107 85 121 125 141 121 126 330 79 107 82 50 124 90 124 64 83 9 16 25 29 28 26 21 18 19 19 19 360 313 255 253 257 248 241 239 250 244 248 226 217 218 217 216 215 213 208 208 211
102 95 101 79 170 151 330 82 83 63 103 357 354 142 160 118 106 13 9 17 17 18 20 12 7 2 12 357 19 358 332 324 295 268 253 242 244 251 254 260 241 233 229 226 220 220 218 216 218
121 70 131 165 165 153 325 116 26 309 107 64 15 83 40 105 37 29 8 0 360 358 3 359 358 355 352 348 356 353 349 338 305 277 262 260 250 245 247 248 249 248 242 236 231 227 224 218 219
71 87 148 114 95 133 82 82 338 130 102 68 64 59 60 63 49 33 6 345 334 338 344 360 356 354 351 344 349 343 344 338 325 313 293 279 255 248 243 246 242 251 255 255 241 234 228 223 234
41 106 152 64 88 69 98 72 313 125 161 159 179 157 20 29 11 356 337 321 325 324 342 349 347 347 352 345 343 340 336 331 324 325 314 307 285 259 247 250 251 249 240 249 248 249 241 234 233
92 53 84 61 359 83 76 303 69 341 108 90 64 108 286 342 334 344 343 338 343 349 356 357 358 359 0 342 341 329 330 331 321 323 313 306 295 291 274 263 256 250 245 246 243 243 244 238 235
75 119 59 86 64 59 183 75 310 267 289 319 220 248 269 221 197 72 30 31 1 2 347 349 346 353 351 349 341 334 326 314 308 301 298 296 286 275 266 251 256 254 257 250 244 244 241 240 241
72 94 99 45 31 47 39 16 343 221 341 58 121 158 190 211 164 166 16 348 353 331 336 330 331 330 335 329 323 316 313 311 304 300 294 291 282 279 272 263 241 242 246 252 251 246 238 237 236
91 74 69 23 2 30 351 250 227 210 334 192 159 154 268 223 234 230 260 306 321 327 325 333 328 334 331 320 313 309 304 306 298 295 296 291 284 274 276 272 266 249 236 243 240 245 247 239 231
58 47 82 353 355 9 30 263 198 123 162 230 264 257 292 220 224 239 276 311 324 326 335 325 324 323 322 319 315 308 302 295 291 287 285 284 280 274 267 261 260 260 246 234 226 226 229 230 238
13 138 108 86 25 351 59 270 256 163 227 258 257 266 276 229 236 242 270 295 303 307 319 320 323 320 319 314 309 306 301 295 290 285 280 278 274 265 255 255 257 259 252 245 230 223 226 236 237
168 121 65 230 340 359 284 265 271 259 244 254 261 268 262 240 240 220 254 263 278 287 310 311 315 317 322 311 304 298 296 290 285 284 280 279 269 268 263 252 250 249 251 254 252 232 223 230 238
119 98 105 323 7 327 267 277 278 272 246 259 267 265 257 238 238 240 254 271 294 311 333 337 327 330 334 333 328 326 319 313 298 290 283 278 275 268 261 256 249 238 244 249 254 254 246 235 229
67 91 32 298 357 353 346 293 278 266 253 233 263 274 247 234 252 272 293 313 329 320 330 334 331 329 326 330 315 298 312 303 295 293 291 284 279 274 270 260 252 244 241 244 249 252 242 247 220
42 110 120 233 324 57 321 282 310 326 259 248 243 245 234 228 245 267 283 293 313 325 338 337 334 329 323 328 324 318 304 295 307 310 308 305 302 291 282 273 264 258 249 248 244 237 236 234 213
104 170 104 51 41 263 6 281 295 294 290 241 237 226 233 235 242 254 264 281 300 316 331 341 338 330 327 328 321 317 314 318 316 307 303 303 307 301 291 282 268 259 254 248 245 248 243 229 229
127 73 71 73 82 23 18 12 270 351 292 263 235 229 234 235 235 245 246 257 277 293 322 336 326 336 329 322 318 316 312 313 316 315 315 316 318 310 297 291 285 271 268 259 251 244 249 252 245
129 78 46 55 56 3 11 134 280 222 222 257 260 232 231 230 239 252 254 257 259 266 311 344 351 332 328 325 320 320 317 317 318 322 323 328 327 326 328 315 291 275 268 279 279 266 252 247 245
85 61 343 354 13 233 241 288 247 263 240 223 230 264 249 233 239 244 249 256 261 272 295 333 334 319 328 323 321 321 321 310 304 313 317 324 328 335 334 325 309 298 293 289 277 264 261 245 234
81 130 151 217 253 287 6 241 253 219 283 238 256 254 261 249 238 243 246 252 254 254 264 264 280 314 323 331 323 314 312 316 312 312 316 312 313 316 319 332 334 328 312 300 288 271 257 259 250
159 129 147 104 168 291 248 281 283 267 253 243 250 249 248 248 246 248 251 244 248 244 241 242 265 292 310 311 320 321 327 332 331 327 330 325 318 315 316 333 344 350 354 341 321 290 295 287 271
139 150 82 17 216 267 275 274 247 309 278 231 243 238 253 255 257 252 248 248 244 235 235 230 230 253 278 291 314 314 327 332 332 329 337 330 327 323 318 331 356 345 338 340 355 360 350 353 10
149 207 93 141 168 207 302 265 213 230 239 243 268 264 266 273 270 266 257 246 237 229 226 231 231 240 262 280 294 300 317 325 328 347 353 343 333 334 333 332 1 357 351 348 40 65 51 52 38
179 195 168 149 209 230 280 271 249 245 282 283 281 296 289 270 271 280 278 274 254 239 229 229 230 233 235 249 265 285 307 324 336 348 349 341 338 345 344 348 28 15 9 10 17 26 40 78 84